{"data":{"norad_id":55927,"intl_designator":"2023-037P","name":"STARLINK-5919","alt_names":[],"object_type":"PAYLOAD","status":"ACTIVE","operator":null,"country":"US","launch_date":"2023-03-17","launch_site_code":"AFWTR","launch_vehicle":null,"mission":null,"orbit_class":"UNKNOWN","rcs_meters":null,"size_class":null,"mass_kg":null,"dimensions":null,"purposes":["comms"],"wikipedia_slug":null,"has_3d_model":false,"image_url":null,"decayed_at":null,"tle_current":{"epoch":"2026-09-20T04:24:52.404768Z","epoch_age_seconds":133512,"freshness":"FRESH","line1":"1 55927U 23037P   26263.18393987  .00000816  00000+0  76134-4 0  9999","line2":"2 55927  70.0003 173.9435 0002475 270.0770  90.0106 14.98330739192615","mean_motion":14.98330739,"eccentricity":0.0002475,"inclination_deg":70.0003,"raan_deg":173.9435,"arg_perigee_deg":270.077,"mean_anomaly_deg":90.0106,"bstar":7.6134e-5,"rev_number":19261,"period_min":96.106951724228,"perigee_km":570.33343347392,"apogee_km":573.77377782371,"semimajor_km":6950.1906056488,"source":"CELESTRAK","updated_at":"2026-09-21T09:00:33.324764Z"}}}